Regional Weather Roundup
Issued by NWS New Orleans/Baton Rouge, LA

Home | Current Version | Previous Version | Graphics & Text | Print | Product List | Glossary On
Versions: 1 2 3 4 5 6 7 8 9 10 11 12 13 14 15 16 17 18 19 20 21 22 23 24 25 26 27 28 29 30 31 32 33 34 35 36 37 38 39 40 41 42 43 44 45 46 47 48 49 50
025
ASUS44 KLIX 291101
RWRLIX
NEW ORLEANS REGIONAL WEATHER ROUNDUP
NATIONAL WEATHER SERVICE NEW ORLEANS LA
600 AM CDT TUE JUL 29 2014

NOTE: "FAIR" INDICATES FEW OR NO CLOUDS BELOW 12,000 FEET WITH NO
      SIGNIFICANT WEATHER AND/OR OBSTRUCTIONS TO VISIBILITY.
      SKY/WX - SKY CONDITION AND SIGNIFICANT WEATHER.
      TMP - AIR TEMPERATURE.     DP    - DEWPOINT TEMPERATURE.
      RH  - RELATIVE HUMIDITY.   PRES  - PRESSURE.
      HI  - HEAT INDEX.          WCI   - WIND CHILL INDEX.

*  THESE STATIONS ARE NOT NWS OR FAA STATIONS AND ARE NOT UNDER
   NWS QUALITY CONTROL.

LAZ038-040-048-061>063-065>067-069-291200-
SOUTHEAST LOUISIANA

CITY           SKY/WX    TMP DP  RH WIND       PRES   REMARKS
N.O. AUDUBON     N/A     81  70  68 MISG        N/A
N.O. INTL ARPT MOCLDY    79  68  69 N9        30.03R
N.O. LAKEFRONT PTCLDY    81  69  67 NE15      30.03R
N.O. DOWNTOWN*   N/A     81  64  57 N8        30.03R
SLIDELL        CLEAR     73  69  87 N3        30.03R
BATON ROUGE    CLOUDY    73  70  90 CALM      30.05R
BOOTHVILLE     CLOUDY    81  74  79 VRB5      30.01R
BELLE CHASSE   MOCLDY    78  69  73 N5        30.01R
BOGALUSA*        N/A     70  66  87 CALM      30.06R
GALLIANO*      NOT AVBL
NEW ROADS*     CLOUDY    73  71  92 CALM      30.05R
GONZALES*        N/A     76  74  93 CALM      30.03S
HAMMOND*       PTCLDY    72  68  88 N3        30.06R
HOUMA*         MOCLDY    78  72  81 N6        30.02S
PORT FOURCHON* CLOUDY    81  77  89 N6        30.03R

$$

MSZ070-080>082-291200-
SOUTHERN MISSISSIPPI

CITY           SKY/WX    TMP DP  RH WIND       PRES   REMARKS
MCCOMB         PTCLDY    68  65  90 CALM      30.06R
GULFPORT       CLEAR     76  67  73 NW5       30.01R
BILOXI         CLEAR     75  67  78 VRB5      30.01R
PASCAGOULA     CLEAR     71  68  90 CALM      30.00R

$$

COASTAL OBSERVATIONS
LAKE AND NEARSHORE STATIONS

STATION/POSITION TIME  TEMP    WIND        PRES    WAVE
                       AIR SEA DIR/SP/G            HT/PER
                 (UTC) (F)     (DEG/KT/KT) (MB)    (FT/S)
PASCAGOULA       1000   75     360/  6/  8 1014.8
WAVELAND YACHT   1000   77     360/ 10/ 11 1015.5
GRAND ISLE       1000   82 87   30/  6/  7 1016.7
SOUTHWEST PASS   1000   82 84  350/  9/ 11 1015.7
NEW CANAL        1000   81 84   40/ 12/ 15 1017.0
SHELL BEACH      1000   81 81   10/ 11/ 13 1015.8

OFFSHORE STATIONS

STATION/POSITION TIME  TEMP    WIND        PRES    WAVE
                       AIR SEA DIR/SP/G            HT/PER
                 (UTC) (F)     (DEG/KT/KT) (MB)    (FT/S)
64 S DAUPHIN ISL 1025   83 86  360/ 12/ 14 1014.6

$$




USA.gov is the U.S. government's official web portal to all federal, state and local government web resources and services.